Location: Dompnac
(44.5644°N, 4.1026°E)
Time: 05:18:00
(UTC+00:00)

Envisat - Visible Passes

Search period start: 25 November 2020 00:00
Search period end: 05 December 2020 00:00
Orbit: 764 x 766 km, 98.1° (Epoch: 24 November)

Date Brightness Start Highest point End Pass type
(mag) Time Alt. Az. Time Alt. Az. Time Alt. Az.
25 Nov 6.4 04:08:18 10° E 04:08:39 10° E 04:09:01 10° E visible
25 Nov 3.1 05:43:19 10° NNE 05:48:27 83° ESE 05:53:32 10° SSW visible
25 Nov 3.5 16:59:32 10° S 17:04:34 65° WSW 17:09:39 10° NNW visible
26 Nov 4.5 05:06:47 10° NNE 05:11:32 38° E 05:16:14 10° SSE visible
26 Nov 5.9 18:03:50 10° SW 18:07:13 18° W 18:10:37 10° NW visible
27 Nov 5.8 04:30:57 10° NE 04:34:25 18° E 04:37:52 10° SE visible
27 Nov 3.1 06:08:49 10° N 06:13:49 58° WNW 06:18:47 10° SSW visible
27 Nov 4.6 17:25:24 10° SSW 17:30:06 37° W 17:34:49 10° NNW visible
28 Nov 3.4 05:31:58 10° NNE 05:37:03 66° ESE 05:42:05 10° S visible
28 Nov 3.2 16:48:06 10° S 16:53:11 81° WSW 16:58:18 10° NNW visible
29 Nov 4.9 04:55:35 10° NNE 05:00:04 31° E 05:04:32 10° SSE visible
29 Nov 5.6 17:51:48 10° SW 17:55:43 22° W 17:59:39 10° NW visible
30 Nov 6.0 04:20:10 10° NE 04:22:54 14° E 04:25:37 10° ESE visible
30 Nov 2.9 05:57:23 10° N 06:02:28 73° WNW 06:07:31 10° SSW visible
30 Nov 4.2 17:13:47 10° S 17:18:39 47° W 17:23:34 10° NNW visible
01 Dec 3.9 05:20:39 10° NNE 05:25:38 52° E 05:30:35 10° S visible
01 Dec 3.0 16:36:43 10° SSE 16:41:48 81° ENE 16:46:54 10° NNW visible
01 Dec 6.2 18:19:12 10° WSW 18:21:27 13° W 18:23:42 10° WNW visible
02 Dec 5.3 04:44:27 10° NE 04:48:36 25° E 04:52:43 10° SSE visible
02 Dec 3.3 06:22:59 10° N 06:27:47 43° WNW 06:32:33 10° SW visible
02 Dec 5.2 17:39:55 10° SSW 17:44:13 28° W 17:48:34 10° NW visible
03 Dec 6.3 04:09:52 10° ENE 04:11:21 11° E 04:12:49 10° ESE visible
03 Dec 3.0 05:45:58 10° NNE 05:51:05 89° E 05:56:11 10° SSW visible
03 Dec 3.7 17:02:14 10° S 17:07:14 60° W 17:12:16 10° NNW visible
04 Dec 4.3 05:09:22 10° NNE 05:14:11 42° E 05:18:58 10° SSE visible
04 Dec 6.0 18:06:45 10° SW 18:09:55 16° W 18:13:04 10° NW visible
